Zurück zum Katalog

COSMOS 735

AktivMilitärLEO
NORAD 7824·PAYLOAD·🇷🇺 Russia

Gestartet May 28, 1975 von Plesetsk Cosmodrome

Loading…

Nächste Überflüge (nächste 24 Stunden)

TLE

AktuellSource: Space-Track

Epoche: Sep 14, 2026, 14:52 UTC

1 07824U 75045D   26257.61971336 -.00000017  00000-0 -53424-5 0  9993
2 07824  74.0163 216.9567 0007264 139.2479 333.0347 12.49370719339757

Verfolge COSMOS 735 in Echtzeit mit AllMySat

Download on the App Store